Location: Bégole
(43.1574°N, 0.3291°E)
Time: 13:35:10
(UTC+00:00)

SL-08 R/B - Pass Details

Date: 28 January 2023
Orbit: 947 x 992 km, 83.0° (Epoch: 19 March)

Event Time Altitude Azimuth Distance (km) Brightness Sun altitude
Rises 19:05:37 0° 355° (N) 3,663 7.5 -22.0°
Reaches altitude 10° 19:08:11 10° 360° (N) 2,719 6.8 -22.5°
Maximum altitude 19:14:19 58° 79° (E) 1,134 4.5 -23.6°
Enters shadow 19:17:42 27° 147° (SSE) 1,784 5.6 -24.2°
Exits shadow 19:22:09 - 161° (SSE) 3,349 7.1 -25.0°
Sets 19:23:02 0° 162° (SSE) 3,680 7.4 -25.2°
